N8SDR Weather Reports


Display with metric or nautical units.
time (UTC)temp
F
wind
direction
speed
MPH
gust
MPH
rain 1hr
in
rain 24hr
in
rain mn
in
humidity
%
barometer
mb
20260509022024 57 338 1.0 2.0 0.00 0.00 0.00 90 1007.2
20260509021521 57 14 1.0 2.0 0.00 0.00 0.00 91 1007.2
20260509021017 57 314 2.0 5.0 0.00 0.00 0.00 92 1007.1
20260509020516 57 339 1.0 2.0 0.00 0.00 0.00 92 1006.9
20260509020012 57 8 0.0 0.0 0.00 0.00 0.00 91 1006.9
20260509015512 57 9 0.0 0.0 0.00 0.00 0.00 91 1006.5
20260509015008 57 6 0.0 0.0 0.00 0.00 0.00 91 1006.6
20260509014505 57 9 0.0 0.0 0.00 0.00 0.00 90 1006.6
20260509014001 58 10 0.0 0.0 0.00 0.00 0.00 90 1006.6
20260509013458 58 4 0.0 0.0 0.00 0.00 0.00 88 1006.8
20260509012953 58 9 0.0 0.0 0.00 0.00 0.00 87 1006.5
20260509012450 59 9 0.0 0.0 0.00 0.00 0.00 86 1006.5
20260509011947 59 342 1.0 1.0 0.00 0.00 0.00 85 1006.6
20260509011445 59 331 0.0 0.0 0.00 0.00 0.00 84 1006.5
20260509010942 59 329 1.0 1.0 0.00 0.00 0.00 83 1006.5
20260509010440 59 356 0.0 2.0 0.00 0.00 0.00 84 1006.5
20260509005937 59 255 0.0 0.0 0.00 0.00 0.00 86 1006.6
20260509005435 58 67 0.0 1.0 0.00 0.00 0.00 86 1006.3
20260509004934 58 299 0.0 0.0 0.00 0.00 0.00 90 1006.4
20260509004431 58 241 0.0 0.0 0.00 0.00 0.00 92 1006.3
20260509003929 58 359 0.0 3.0 0.00 0.00 0.00 92 1005.9
20260509003427 58 8 0.0 0.0 0.00 0.00 0.00 90 1005.9
20260509002923 59 334 0.0 0.0 0.00 0.00 0.00 88 1005.8
20260509002422 60 348 0.0 0.0 0.00 0.00 0.00 87 1005.9
20260509001918 60 348 0.0 0.0 0.00 0.00 0.00 87 1005.7
20260509001414 60 20 0.0 0.0 0.00 0.00 0.00 86 1005.5
20260509000912 60 16 0.0 0.0 0.00 0.00 0.00 86 1005.7
20260509000410 60 16 0.0 0.0 0.00 0.00 0.00 85 1005.8
20260508235905 61 6 0.0 0.0 0.00 0.00 0.00 85 1006.0
20260508235403 61 5 0.0 0.0 0.00 0.00 0.00 84 1006.1
20260508234900 61 9 0.0 0.0 0.00 0.00 0.00 84 1005.8
20260508234356 62 7 0.0 0.0 0.00 0.00 0.00 82 1005.7
20260508233855 62 7 0.0 0.0 0.00 0.00 0.00 82 1005.7
20260508233354 62 17 0.0 0.0 0.00 0.00 0.00 82 1005.7
20260508232850 62 18 0.0 0.0 0.00 0.00 0.00 82 1005.6
20260508232346 62 351 0.0 0.0 0.00 0.00 0.00 81 1005.5
20260508231845 62 337 0.0 0.0 0.00 0.00 0.00 81 1005.9
20260508231341 63 23 0.0 0.0 0.00 0.00 0.00 77 1006.0
20260508230838 63 358 0.0 0.0 0.00 0.00 0.00 71 1005.8
20260508230334 63 8 0.0 0.0 0.00 0.00 0.00 71 1005.7
20260508225832 64 33 0.0 0.0 0.00 0.00 0.00 73 1005.8
20260508225328 64 34 0.0 0.0 0.00 0.00 0.00 71 1005.6
20260508224827 65 23 0.0 0.0 0.00 0.00 0.00 67 1005.6
20260508224324 66 23 0.0 0.0 0.00 0.00 0.00 62 1005.9
20260508223821 66 26 0.0 1.0 0.00 0.00 0.00 61 1005.5
20260508223318 67 339 0.0 0.0 0.00 0.00 0.00 57 1005.4
20260508222816 67 353 0.0 0.0 0.00 0.00 0.00 53 1005.6
20260508222313 67 331 0.0 2.0 0.00 0.00 0.00 53 1005.7
20260508221809 68 323 1.0 2.0 0.00 0.00 0.00 52 1005.5
20260508221305 68 308 0.0 0.0 0.00 0.00 0.00 52 1005.6
20260508220801 68 241 0.0 2.0 0.00 0.00 0.00 51 1005.7
20260508220258 68 3 0.0 2.0 0.00 0.00 0.00 53 1005.7
20260508215754 68 246 0.0 0.0 0.00 0.00 0.00 51 1005.6
20260508215251 68 280 0.0 0.0 0.00 0.00 0.00 52 1005.7
20260508214749 68 215 1.0 2.0 0.00 0.00 0.00 52 1005.6
20260508214245 68 295 0.0 0.0 0.00 0.00 0.00 52 1005.6
20260508213742 68 183 0.0 0.0 0.00 0.00 0.00 50 1005.6
20260508213238 68 244 0.0 2.0 0.00 0.00 0.00 51 1005.5
20260508212729 68 256 0.0 3.0 0.00 0.00 0.00 50 1005.5
20260508212226 69 222 1.0 2.0 0.00 0.00 0.00 49 1005.7
20260508211721 69 354 0.0 2.0 0.00 0.00 0.00 49 1005.6
20260508211217 69 245 2.0 3.0 0.00 0.00 0.00 49 1005.5
20260508210715 69 180 1.0 5.0 0.00 0.00 0.00 48 1005.9
20260508210212 69 225 0.0 5.0 0.00 0.00 0.00 49 1005.7
20260508205709 68 239 3.0 7.0 0.00 0.00 0.00 48 1005.9
20260508205205 68 182 2.0 3.0 0.00 0.00 0.00 48 1005.7
20260508204701 68 354 0.0 7.0 0.00 0.00 0.00 48 1005.9
20260508204157 68 200 3.0 5.0 0.00 0.00 0.00 47 1005.9
20260508203654 68 221 3.0 6.0 0.00 0.00 0.00 48 1006.2
20260508203150 69 225 5.0 7.0 0.00 0.00 0.00 47 1006.3
20260508202646 69 217 0.0 3.0 0.00 0.00 0.00 49 1006.4
20260508202144 69 205 1.0 3.0 0.00 0.00 0.00 47 1006.5
20260508201640 69 302 0.0 9.0 0.00 0.00 0.00 49 1006.6
20260508201137 69 179 1.0 2.0 0.00 0.00 0.00 48 1006.6
20260508200634 69 215 0.0 1.0 0.00 0.00 0.00 47 1006.4
20260508200130 69 286 2.0 5.0 0.00 0.00 0.00 48 1006.7
20260508195627 69 227 2.0 3.0 0.00 0.00 0.00 47 1006.8
20260508195123 69 213 1.0 2.0 0.00 0.00 0.00 47 1006.8
20260508194620 68 222 2.0 5.0 0.00 0.00 0.00 47 1006.8
20260508194117 69 183 2.0 3.0 0.00 0.00 0.00 48 1007.0
20260508193614 69 283 2.0 5.0 0.00 0.00 0.00 47 1006.9
20260508193110 69 353 0.0 2.0 0.00 0.00 0.00 46 1006.9
20260508192607 69 123 0.0 2.0 0.00 0.00 0.00 46 1006.9
20260508192104 69 118 0.0 5.0 0.00 0.00 0.00 45 1006.9
20260508191601 69 222 3.0 6.0 0.00 0.00 0.00 45 1006.9
20260508191058 70 310 0.0 3.0 0.00 0.00 0.00 46 1007.1
20260508190555 71 189 0.0 10.0 0.00 0.00 0.00 47 1007.0
20260508190051 71 176 0.0 5.0 0.00 0.00 0.00 45 1007.0
20260508185549 71 194 5.0 7.0 0.00 0.00 0.00 46 1007.0
20260508185046 70 291 0.0 10.0 0.00 0.00 0.00 46 1007.1
20260508184543 71 100 1.0 6.0 0.00 0.00 0.00 46 1007.3
20260508184040 71 192 2.0 5.0 0.00 0.00 0.00 47 1007.4
20260508183536 71 204 0.0 5.0 0.00 0.00 0.00 47 1007.3
20260508183032 71 199 7.0 10.0 0.00 0.00 0.00 46 1007.7
20260508182529 71 246 2.0 13.0 0.00 0.00 0.00 48 1007.5
20260508182026 70 235 3.0 10.0 0.00 0.00 0.00 47 1007.9
20260508181521 70 304 1.0 6.0 0.00 0.00 0.00 48 1007.9
20260508181019 70 218 9.0 10.0 0.00 0.00 0.00 45 1007.9
20260508180515 69 220 4.0 11.0 0.00 0.00 0.00 46 1008.1
20260508180012 70 223 4.0 5.0 0.00 0.00 0.00 50 1008.2
20260508175508 70 258 0.0 2.0 0.00 0.00 0.00 51 1008.3
20260508175006 69 191 1.0 6.0 0.00 0.00 0.00 49 1008.5
20260508174503 69 201 3.0 14.0 0.00 0.00 0.00 49 1008.6
20260508174000 71 219 4.0 7.0 0.00 0.00 0.00 47 1008.6
20260508173457 70 152 1.0 7.0 0.00 0.00 0.00 48 1008.7
20260508172953 68 284 0.0 2.0 0.00 0.00 0.00 52 1008.6
20260508172450 68 190 3.0 7.0 0.00 0.00 0.00 50 1009.0
20260508171946 68 228 9.0 10.0 0.00 0.00 0.00 49 1009.0
20260508171443 68 214 1.0 6.0 0.00 0.00 0.00 51 1009.0
20260508170939 68 335 0.0 3.0 0.00 0.00 0.00 50 1009.2
20260508170437 68 210 5.0 10.0 0.00 0.00 0.00 49 1009.0
20260508165933 68 296 0.0 5.0 0.00 0.00 0.00 51 1009.1
20260508165432 68 210 7.0 13.0 0.00 0.00 0.00 48 1009.2
20260508164927 70 347 1.0 3.0 0.00 0.00 0.00 50 1009.3
20260508164424 69 311 0.0 7.0 0.00 0.00 0.00 50 1009.5
20260508163922 69 201 5.0 8.0 0.00 0.00 0.00 49 1009.4
20260508163419 69 302 0.0 7.0 0.00 0.00 0.00 50 1009.7
20260508162914 68 240 5.0 10.0 0.00 0.00 0.00 50 1009.8
20260508162412 68 185 3.0 10.0 0.00 0.00 0.00 50 1009.7
20260508161909 67 193 6.0 10.0 0.00 0.00 0.00 50 1010.0
20260508161406 69 185 9.0 14.0 0.00 0.00 0.00 49 1010.0
20260508160903 68 249 3.0 6.0 0.00 0.00 0.00 50 1010.0
20260508160403 68 219 6.0 9.0 0.00 0.00 0.00 51 1010.0
20260508155858 67 209 5.0 11.0 0.00 0.00 0.00 51 1009.9
20260508155355 66 238 1.0 6.0 0.00 0.00 0.00 51 1010.1
20260508154852 67 141 4.0 7.0 0.00 0.00 0.00 51 1010.2
20260508154350 66 203 6.0 11.0 0.00 0.00 0.00 51 1010.1
20260508153846 66 222 9.0 10.0 0.00 0.00 0.00 51 1010.4
20260508153343 66 134 0.0 9.0 0.00 0.00 0.00 53 1010.4
20260508152839 66 172 3.0 10.0 0.00 0.00 0.00 53 1010.4
20260508152336 65 234 7.0 8.0 0.00 0.00 0.00 54 1010.4
20260508151832 64 194 3.0 8.0 0.00 0.00 0.00 56 1010.4
20260508151330 64 182 4.0 11.0 0.00 0.00 0.00 56 1010.5
20260508150826 64 193 4.0 9.0 0.00 0.00 0.00 56 1010.5
20260508150322 64 192 5.0 10.0 0.00 0.00 0.00 56 1010.4
20260508145819 63 165 2.0 8.0 0.00 0.00 0.00 57 1010.3
20260508145315 63 215 6.0 8.0 0.00 0.00 0.00 56 1010.4
20260508144812 62 227 2.0 6.0 0.00 0.00 0.00 58 1010.7
20260508144310 63 222 4.0 11.0 0.00 0.00 0.00 58 1010.6
20260508143807 63 177 5.0 7.0 0.00 0.00 0.00 57 1010.6
20260508143304 62 188 0.0 7.0 0.00 0.00 0.00 57 1010.8
20260508142801 63 260 2.0 3.0 0.00 0.00 0.00 56 1010.6
20260508142257 62 199 3.0 3.0 0.00 0.00 0.00 57 1011.0
20260508141754 62 223 5.0 9.0 0.00 0.00 0.00 56 1011.0
20260508141251 61 226 0.0 3.0 0.00 0.00 0.00 58 1010.8
20260508140749 61 318 0.0 7.0 0.00 0.00 0.00 59 1011.1
20260508140245 60 170 3.0 6.0 0.00 0.00 0.00 59 1011.1
20260508135741 60 217 3.0 8.0 0.00 0.00 0.00 59 1011.0
20260508135237 59 240 5.0 7.0 0.00 0.00 0.00 59 1011.1
20260508134733 58 174 5.0 7.0 0.00 0.00 0.00 61 1011.1
20260508134231 58 194 5.0 6.0 0.00 0.00 0.00 61 1011.1
20260508133727 57 214 4.0 6.0 0.00 0.00 0.00 62 1011.1
20260508133225 57 193 1.0 2.0 0.00 0.00 0.00 63 1011.1
20260508132722 56 185 3.0 6.0 0.00 0.00 0.00 64 1011.0
20260508132220 55 218 3.0 5.0 0.00 0.00 0.00 66 1011.2
20260508131715 55 217 4.0 6.0 0.00 0.00 0.00 66 1011.1
20260508131212 54 181 3.0 6.0 0.00 0.00 0.00 68 1011.2
20260508130709 54 170 3.0 5.0 0.00 0.00 0.00 67 1011.3
20260508130206 54 244 3.0 3.0 0.00 0.00 0.00 68 1011.2
20260508125701 53 187 3.0 3.0 0.00 0.00 0.00 67 1011.2
20260508125158 54 170 3.0 5.0 0.00 0.00 0.00 67 1011.1
20260508124656 53 194 3.0 7.0 0.00 0.00 0.00 68 1011.2
20260508124153 53 190 0.0 5.0 0.00 0.00 0.00 69 1011.3
20260508123651 53 202 0.0 8.0 0.00 0.00 0.00 68 1011.0
20260508123149 53 184 3.0 6.0 0.00 0.00 0.00 68 1010.9
20260508122644 53 222 1.0 6.0 0.00 0.00 0.00 68 1011.1
20260508122141 52 210 2.0 5.0 0.00 0.00 0.00 69 1011.0
20260508121640 52 179 3.0 3.0 0.00 0.00 0.00 70 1011.0
20260508121138 51 206 2.0 3.0 0.00 0.00 0.00 71 1011.2
20260508120635 51 169 1.0 3.0 0.00 0.00 0.00 72 1011.0
20260508120133 51 168 2.0 5.0 0.00 0.00 0.00 73 1011.1
20260508115630 51 172 2.0 2.0 0.00 0.00 0.00 73 1011.2
20260508115127 50 173 2.0 3.0 0.00 0.00 0.00 75 1011.0
20260508114624 50 188 3.0 5.0 0.00 0.00 0.00 75 1011.0
20260508114120 49 202 2.0 3.0 0.00 0.00 0.00 76 1010.9
20260508113617 49 166 4.0 5.0 0.00 0.00 0.00 76 1010.9
20260508113116 49 208 3.0 5.0 0.00 0.00 0.00 75 1010.7
20260508112611 49 149 2.0 2.0 0.00 0.00 0.00 76 1010.8
20260508112108 49 220 3.0 3.0 0.00 0.00 0.00 76 1010.6
20260508111605 49 199 3.0 3.0 0.00 0.00 0.00 76 1010.6
20260508111102 48 172 2.0 5.0 0.00 0.00 0.00 76 1010.7
20260508110601 48 209 2.0 3.0 0.00 0.00 0.00 77 1010.4
20260508110056 48 194 2.0 2.0 0.00 0.00 0.00 77 1010.4
20260508105551 48 172 3.0 3.0 0.00 0.00 0.00 77 1010.5
20260508105049 48 164 2.0 3.0 0.00 0.00 0.00 77 1010.2
20260508104546 48 186 1.0 2.0 0.00 0.00 0.00 78 1010.5
20260508104042 48 202 3.0 3.0 0.00 0.00 0.00 78 1010.7
20260508103540 48 224 1.0 2.0 0.00 0.00 0.00 78 1010.4
20260508103037 48 155 1.0 3.0 0.00 0.00 0.00 78 1010.5
20260508102534 48 188 1.0 2.0 0.00 0.00 0.00 78 1010.5
20260508102032 48 153 1.0 2.0 0.00 0.00 0.00 78 1010.3
20260508101529 48 179 1.0 2.0 0.00 0.00 0.00 78 1010.4
20260508101026 48 242 0.0 1.0 0.00 0.00 0.00 78 1010.6
20260508100525 48 200 1.0 3.0 0.00 0.00 0.00 78 1010.5
20260508100021 48 195 1.0 1.0 0.00 0.00 0.00 78 1010.5
20260508095518 48 216 0.0 1.0 0.00 0.00 0.00 78 1010.5
20260508095015 47 161 0.0 2.0 0.00 0.00 0.00 79 1010.4
20260508094512 47 208 1.0 2.0 0.00 0.00 0.00 80 1010.4
20260508094009 47 134 0.0 0.0 0.00 0.00 0.00 81 1010.5
20260508093506 47 159 0.0 0.0 0.00 0.00 0.00 81 1010.5
20260508093004 47 106 0.0 0.0 0.00 0.00 0.00 81 1010.6
20260508092501 47 87 0.0 0.0 0.00 0.00 0.00 81 1010.4
20260508092000 47 112 0.0 0.0 0.00 0.00 0.00 80 1010.5
20260508091456 47 69 0.0 0.0 0.00 0.00 0.00 81 1010.5
20260508090953 46 44 0.0 0.0 0.00 0.00 0.00 82 1010.6
20260508090452 46 107 0.0 1.0 0.00 0.00 0.00 82 1010.6
20260508085947 46 134 0.0 1.0 0.00 0.00 0.00 83 1010.8
20260508085444 46 132 0.0 0.0 0.00 0.00 0.00 84 1010.7
20260508084941 46 31 0.0 0.0 0.00 0.00 0.00 85 1010.7
20260508084438 45 14 0.0 0.0 0.00 0.00 0.00 84 1010.7
20260508083936 46 15 0.0 0.0 0.00 0.00 0.00 84 1010.8
20260508083433 46 14 0.0 0.0 0.00 0.00 0.00 84 1010.5
20260508082933 46 16 1.0 1.0 0.00 0.00 0.00 83 1010.7
20260508082430 46 8 0.0 0.0 0.00 0.00 0.00 80 1010.6
20260508081928 46 8 0.0 0.0 0.00 0.00 0.00 80 1010.6
20260508081425 46 356 0.0 0.0 0.00 0.00 0.00 80 1010.5
20260508080921 46 295 0.0 0.0 0.00 0.00 0.00 80 1010.7
20260508080419 46 28 0.0 0.0 0.00 0.00 0.00 79 1010.4
20260508075915 47 219 2.0 3.0 0.00 0.00 0.00 79 1010.5
20260508075413 47 293 0.0 1.0 0.00 0.00 0.00 79 1010.3
20260508074911 47 178 1.0 2.0 0.00 0.00 0.00 79 1010.2
20260508074408 47 156 0.0 1.0 0.00 0.00 0.00 79 1010.5
20260508073904 47 183 0.0 1.0 0.00 0.00 0.00 78 1010.4
20260508073402 47 196 1.0 2.0 0.00 0.00 0.00 78 1010.4
20260508072858 47 199 0.0 2.0 0.00 0.00 0.00 78 1010.4
20260508072355 47 189 0.0 1.0 0.00 0.00 0.00 79 1010.4
20260508071852 47 171 1.0 2.0 0.00 0.00 0.00 79 1010.5
20260508071351 47 186 0.0 1.0 0.00 0.00 0.00 79 1010.3
20260508070848 47 171 1.0 2.0 0.00 0.00 0.00 79 1010.5
20260508070346 46 157 0.0 1.0 0.00 0.00 0.00 79 1010.7
20260508065843 47 98 0.0 0.0 0.00 0.00 0.00 79 1010.7
20260508065341 47 228 1.0 1.0 0.00 0.00 0.00 79 1010.8
20260508064839 47 282 0.0 2.0 0.00 0.00 0.00 78 1010.8
20260508064336 47 93 0.0 2.0 0.00 0.00 0.00 78 1010.8
20260508063834 47 138 0.0 2.0 0.00 0.00 0.00 78 1010.6
20260508063331 47 126 1.0 2.0 0.00 0.00 0.00 78 1011.0
20260508062828 47 159 1.0 3.0 0.00 0.00 0.00 78 1011.0
20260508062326 47 122 0.0 1.0 0.00 0.00 0.00 78 1011.3
20260508061823 47 131 0.0 2.0 0.00 0.00 0.00 78 1011.1
20260508061320 47 121 0.0 0.0 0.00 0.00 0.00 78 1011.1
20260508060816 47 125 0.0 1.0 0.00 0.00 0.00 78 1011.1
20260508060314 47 143 0.0 0.0 0.00 0.00 0.00 78 1011.2
20260508055809 46 85 0.0 0.0 0.00 0.00 0.00 79 1011.4
20260508055307 46 85 0.0 0.0 0.00 0.00 0.00 79 1011.1
20260508054803 46 123 0.0 0.0 0.00 0.00 0.00 80 1011.1
20260508054301 45 47 0.0 0.0 0.00 0.00 0.00 81 1011.3
20260508053757 45 42 0.0 0.0 0.00 0.00 0.00 83 1011.2
20260508053255 45 27 0.0 0.0 0.00 0.00 0.00 82 1011.4
20260508052752 46 46 0.0 0.0 0.00 0.00 0.00 82 1011.2
20260508052249 46 54 0.0 0.0 0.00 0.00 0.00 81 1011.3
20260508051745 46 88 0.0 0.0 0.00 0.00 0.00 81 1011.2
20260508051240 46 37 0.0 0.0 0.00 0.00 0.00 80 1011.3
20260508050737 47 74 0.0 0.0 0.00 0.00 0.00 79 1011.2
20260508050235 47 82 0.0 0.0 0.00 0.00 0.00 79 1011.2
20260508045730 47 48 0.0 0.0 0.00 0.00 0.00 79 1011.2
20260508045228 46 100 0.0 0.0 0.00 0.00 0.00 80 1011.0
20260508044725 46 42 0.0 0.0 0.00 0.00 0.00 82 1011.1
20260508044222 46 39 0.0 0.0 0.00 0.00 0.00 81 1011.1
20260508043718 47 40 0.0 0.0 0.00 0.00 0.00 79 1011.2
20260508043216 47 55 0.0 0.0 0.00 0.00 0.00 78 1010.9
20260508042712 47 107 0.0 0.0 0.00 0.00 0.00 78 1011.1
20260508042210 47 93 0.0 0.0 0.00 0.00 0.00 78 1011.0
20260508041706 47 82 0.0 0.0 0.00 0.00 0.00 78 1011.0
20260508041203 47 88 0.0 0.0 0.00 0.00 0.00 77 1011.0
20260508040659 47 91 0.0 0.0 0.00 0.00 0.00 78 1011.1
20260508040157 47 32 0.0 0.0 0.00 0.00 0.00 77 1011.0
20260508035654 47 31 0.0 0.0 0.00 0.00 0.00 76 1011.0
20260508035151 48 31 0.0 0.0 0.00 0.00 0.00 75 1010.8
20260508034648 49 52 0.0 0.0 0.00 0.00 0.00 73 1010.8
20260508034145 49 103 0.0 0.0 0.00 0.00 0.00 72 1010.8
20260508033642 49 81 0.0 0.0 0.00 0.00 0.00 71 1010.8
20260508033141 50 105 0.0 0.0 0.00 0.00 0.00 70 1011.0
20260508032636 50 170 0.0 0.0 0.00 0.00 0.00 69 1010.8
20260508032134 50 176 0.0 1.0 0.00 0.00 0.00 69 1011.1
20260508031631 49 341 0.0 0.0 0.00 0.00 0.00 69 1010.8
20260508031127 50 340 0.0 0.0 0.00 0.00 0.00 68 1010.9
20260508030624 50 342 0.0 0.0 0.00 0.00 0.00 66 1010.9
20260508030122 51 356 0.0 0.0 0.00 0.00 0.00 66 1010.8
20260508025618 51 336 0.0 0.0 0.00 0.00 0.00 67 1010.8
20260508025115 51 215 0.0 2.0 0.00 0.00 0.00 66 1010.7
20260508024610 51 173 0.0 1.0 0.00 0.00 0.00 67 1010.8
20260508024108 51 165 0.0 0.0 0.00 0.00 0.00 67 1010.7
20260508023604 50 56 0.0 0.0 0.00 0.00 0.00 68 1010.8
20260508023102 50 17 0.0 0.0 0.00 0.00 0.00 68 1011.2
20260508022557 50 18 0.0 0.0 0.00 0.00 0.00 65 1011.0